Time,TemperatureF,DewpointF,PressureIn,WindDirection,WindDirectionDegrees,WindSpeedMPH,WindSpeedGustMPH,Humidity,HourlyPrecipIn,Conditions,Clouds,dailyrainin,SoftwareType,DateUTC
2013-03-27 00:01:00,33.5,26.0,30.29,SW,231,3.0,7.0,73,0.00,,,0.00,weatherlink.com 1.10,2013-03-27 05:01:00,
2013-03-27 00:16:00,33.4,26.0,30.29,WSW,244,3.0,7.0,73,0.00,,,0.00,weatherlink.com 1.10,2013-03-27 05:16:00,
2013-03-27 00:31:00,33.4,26.0,30.30,SW,233,4.0,7.0,73,0.00,,,0.00,weatherlink.com 1.10,2013-03-27 05:31:00,
2013-03-27 00:46:00,33.2,26.0,30.30,WSW,251,1.0,5.0,74,0.00,,,0.00,weatherlink.com 1.10,2013-03-27 05:46:00,
2013-03-27 01:01:00,33.0,26.0,30.30,WSW,253,0.0,4.0,74,0.00,,,0.00,weatherlink.com 1.10,2013-03-27 06:01:00,
2013-03-27 01:16:00,32.9,25.0,30.30,West,262,2.0,6.0,74,0.00,,,0.00,weatherlink.com 1.10,2013-03-27 06:16:00,
2013-03-27 01:31:00,33.0,25.0,30.30,West,271,1.0,6.0,73,0.00,,,0.00,weatherlink.com 1.10,2013-03-27 06:31:00,
2013-03-27 01:46:00,32.9,25.0,30.30,West,268,3.0,8.0,73,0.00,,,0.00,weatherlink.com 1.10,2013-03-27 06:46:00,
2013-03-27 02:01:00,32.8,25.0,30.30,SW,236,3.0,7.0,73,0.00,,,0.00,weatherlink.com 1.10,2013-03-27 07:01:00,
2013-03-27 02:16:00,32.7,25.0,30.30,WSW,237,3.0,7.0,74,0.00,,,0.00,weatherlink.com 1.10,2013-03-27 07:16:00,
2013-03-27 02:31:00,32.6,26.0,30.30,WSW,250,3.0,7.0,75,0.00,,,0.00,weatherlink.com 1.10,2013-03-27 07:31:00,
2013-03-27 03:16:00,32.5,24.0,30.30,West,263,4.0,5.0,72,0.00,,,0.00,weatherlink.com 1.10,2013-03-27 08:16:00,
2013-03-27 03:31:00,32.5,24.0,30.30,WSW,254,6.0,7.0,71,0.00,,,0.00,weatherlink.com 1.10,2013-03-27 08:31:00,
2013-03-27 04:16:00,32.1,24.0,30.30,North,360,7.0,7.0,72,0.00,,,0.00,weatherlink.com 1.10,2013-03-27 09:16:00,
2013-03-27 04:31:00,32.2,24.0,30.31,West,266,4.0,6.0,72,0.00,,,0.00,weatherlink.com 1.10,2013-03-27 09:31:00,
2013-03-27 05:01:00,32.0,24.0,30.30,West,265,2.0,4.0,73,0.00,,,0.00,weatherlink.com 1.10,2013-03-27 10:01:00,
2013-03-27 05:16:00,31.8,24.0,30.30,West,260,0.0,4.0,74,0.00,,,0.00,weatherlink.com 1.10,2013-03-27 10:16:00,
2013-03-27 05:31:00,31.7,24.0,30.30,SW,232,2.0,4.0,74,0.00,,,0.00,weatherlink.com 1.10,2013-03-27 10:31:00,
2013-03-27 05:46:00,31.6,25.0,30.31,WSW,242,2.0,5.0,75,0.00,,,0.00,weatherlink.com 1.10,2013-03-27 10:46:00,
2013-03-27 06:01:00,31.7,25.0,30.31,West,274,0.0,6.0,75,0.00,,,0.00,weatherlink.com 1.10,2013-03-27 11:01:00,
2013-03-27 06:16:00,31.7,25.0,30.31,WSW,237,4.0,7.0,75,0.00,,,0.00,weatherlink.com 1.10,2013-03-27 11:16:00,
2013-03-27 07:16:00,31.6,25.0,30.33,WSW,242,1.0,6.0,78,0.00,,,0.00,weatherlink.com 1.10,2013-03-27 12:16:00,
2013-03-27 07:31:00,31.8,26.0,30.33,WSW,250,2.0,6.0,78,0.00,,,0.00,weatherlink.com 1.10,2013-03-27 12:31:00,
2013-03-27 07:46:00,32.0,26.0,30.33,WSW,254,2.0,6.0,78,0.00,,,0.00,weatherlink.com 1.10,2013-03-27 12:46:00,
2013-03-27 08:01:00,32.2,26.0,30.34,WSW,246,3.0,6.0,78,0.00,,,0.00,weatherlink.com 1.10,2013-03-27 13:01:00,
2013-03-27 08:16:00,32.4,26.0,30.34,SW,232,3.0,6.0,78,0.00,,,0.00,weatherlink.com 1.10,2013-03-27 13:16:00,
2013-03-27 08:31:00,32.8,26.0,30.34,WSW,244,5.0,7.0,77,0.00,,,0.00,weatherlink.com 1.10,2013-03-27 13:31:00,
2013-03-27 08:47:00,33.0,26.0,30.35,WSW,239,3.0,7.0,76,0.00,,,0.00,weatherlink.com 1.10,2013-03-27 13:47:00,
2013-03-27 09:02:00,33.3,26.0,30.34,WSW,252,3.0,8.0,75,0.00,,,0.00,weatherlink.com 1.10,2013-03-27 14:02:00,
2013-03-27 09:17:00,33.8,27.0,30.35,WSW,256,2.0,6.0,75,0.00,,,0.00,weatherlink.com 1.10,2013-03-27 14:17:00,
2013-03-27 09:32:00,34.5,27.0,30.34,WSW,240,3.0,7.0,73,0.00,,,0.00,weatherlink.com 1.10,2013-03-27 14:32:00,
2013-03-27 09:47:00,35.1,27.0,30.35,NW,322,3.0,7.0,72,0.00,,,0.00,weatherlink.com 1.10,2013-03-27 14:47:00,
2013-03-27 10:02:00,35.8,27.0,30.35,West,270,1.0,7.0,70,0.00,,,0.00,weatherlink.com 1.10,2013-03-27 15:02:00,
2013-03-27 10:17:00,36.0,27.0,30.35,West,275,3.0,8.0,70,0.00,,,0.00,weatherlink.com 1.10,2013-03-27 15:17:00,
2013-03-27 10:32:00,37.1,27.0,30.35,West,281,3.0,8.0,68,0.00,,,0.00,weatherlink.com 1.10,2013-03-27 15:32:00,
2013-03-27 10:47:00,37.9,27.0,30.36,WNW,282,3.0,7.0,65,0.00,,,0.00,weatherlink.com 1.10,2013-03-27 15:47:00,
2013-03-27 11:02:00,39.0,27.0,30.36,West,277,4.0,7.0,62,0.00,,,0.00,weatherlink.com 1.10,2013-03-27 16:02:00,
2013-03-27 11:17:00,38.9,27.0,30.36,West,279,4.0,10.0,62,0.00,,,0.00,weatherlink.com 1.10,2013-03-27 16:17:00,
2013-03-27 11:32:00,39.0,26.0,30.36,WSW,258,4.0,11.0,60,0.00,,,0.00,weatherlink.com 1.10,2013-03-27 16:32:00,
2013-03-27 11:47:00,40.0,27.0,30.36,WNW,298,2.0,9.0,59,0.00,,,0.00,weatherlink.com 1.10,2013-03-27 16:47:00,
2013-03-27 12:02:00,40.4,26.0,30.36,WNW,291,6.0,7.0,56,0.00,,,0.00,weatherlink.com 1.10,2013-03-27 17:02:00,
2013-03-27 12:17:00,39.4,24.0,30.36,West,265,4.0,9.0,55,0.00,,,0.00,weatherlink.com 1.10,2013-03-27 17:17:00,
2013-03-27 12:32:00,38.8,23.0,30.36,WSW,257,3.0,8.0,54,0.00,,,0.00,weatherlink.com 1.10,2013-03-27 17:32:00,
2013-03-27 12:47:00,38.9,24.0,30.36,West,263,5.0,9.0,55,0.00,,,0.00,weatherlink.com 1.10,2013-03-27 17:47:00,
2013-03-27 13:02:00,38.7,24.0,30.36,West,271,1.0,8.0,55,0.00,,,0.00,weatherlink.com 1.10,2013-03-27 18:02:00,
2013-03-27 13:17:00,39.0,24.0,30.35,NW,318,1.0,5.0,56,0.00,,,0.00,weatherlink.com 1.10,2013-03-27 18:17:00,
2013-03-27 13:32:00,39.0,24.0,30.35,West,266,1.0,7.0,56,0.00,,,0.00,weatherlink.com 1.10,2013-03-27 18:32:00,
2013-03-27 13:47:00,39.1,24.0,30.35,SW,236,4.0,7.0,56,0.00,,,0.00,weatherlink.com 1.10,2013-03-27 18:47:00,
2013-03-27 14:02:00,39.8,24.0,30.35,WSW,241,4.0,8.0,53,0.00,,,0.00,weatherlink.com 1.10,2013-03-27 19:02:00,
2013-03-27 14:17:00,39.2,25.0,30.35,SW,224,4.0,10.0,56,0.00,,,0.00,weatherlink.com 1.10,2013-03-27 19:17:00,
2013-03-27 14:32:00,38.9,24.0,30.35,WSW,242,2.0,9.0,56,0.00,,,0.00,weatherlink.com 1.10,2013-03-27 19:32:00,
2013-03-27 14:47:00,38.9,23.0,30.34,WSW,240,7.0,9.0,54,0.00,,,0.00,weatherlink.com 1.10,2013-03-27 19:47:00,
2013-03-27 15:02:00,39.0,23.0,30.34,SW,225,4.0,8.0,54,0.00,,,0.00,weatherlink.com 1.10,2013-03-27 20:02:00,
2013-03-27 15:17:00,39.3,24.0,30.34,SW,215,6.0,7.0,54,0.00,,,0.00,weatherlink.com 1.10,2013-03-27 20:17:00,
2013-03-27 15:32:00,39.4,24.0,30.34,WSW,253,5.0,9.0,54,0.00,,,0.00,weatherlink.com 1.10,2013-03-27 20:32:00,
2013-03-27 15:58:00,39.5,24.0,30.34,WNW,293,2.0,8.0,54,0.00,,,0.00,weatherlink.com 1.10,2013-03-27 20:58:00,
2013-03-27 16:17:00,39.3,24.0,30.34,West,277,4.0,9.0,54,0.00,,,0.00,weatherlink.com 1.10,2013-03-27 21:17:00,
2013-03-27 16:32:00,39.5,23.0,30.33,West,278,1.0,7.0,52,0.00,,,0.00,weatherlink.com 1.10,2013-03-27 21:32:00,
2013-03-27 16:47:00,39.3,22.0,30.33,SW,214,4.0,7.0,51,0.00,,,0.00,weatherlink.com 1.10,2013-03-27 21:47:00,
2013-03-27 17:02:00,39.3,23.0,30.33,SW,232,3.0,7.0,52,0.00,,,0.00,weatherlink.com 1.10,2013-03-27 22:02:00,
2013-03-27 17:17:00,38.9,22.0,30.33,WSW,257,3.0,6.0,51,0.00,,,0.00,weatherlink.com 1.10,2013-03-27 22:17:00,
2013-03-27 17:32:00,39.4,22.0,30.33,West,267,3.0,7.0,51,0.00,,,0.00,weatherlink.com 1.10,2013-03-27 22:32:00,
2013-03-27 17:47:00,39.8,24.0,30.33,WNW,285,1.0,6.0,53,0.00,,,0.00,weatherlink.com 1.10,2013-03-27 22:47:00,
2013-03-27 18:02:00,40.2,22.0,30.33,WNW,296,2.0,8.0,49,0.00,,,0.00,weatherlink.com 1.10,2013-03-27 23:02:00,
2013-03-27 18:17:00,40.2,22.0,30.33,West,281,2.0,6.0,49,0.00,,,0.00,weatherlink.com 1.10,2013-03-27 23:17:00,
2013-03-27 18:32:00,39.7,22.0,30.33,NW,311,1.0,6.0,50,0.00,,,0.00,weatherlink.com 1.10,2013-03-27 23:32:00,
2013-03-27 18:47:00,38.9,22.0,30.33,WSW,257,1.0,6.0,52,0.00,,,0.00,weatherlink.com 1.10,2013-03-27 23:47:00,
2013-03-27 19:02:00,37.9,22.0,30.33,WNW,283,0.0,3.0,53,0.00,,,0.00,weatherlink.com 1.10,2013-03-28 00:02:00,
2013-03-27 19:17:00,36.5,22.0,30.33,WNW,283,0.0,2.0,55,0.00,,,0.00,weatherlink.com 1.10,2013-03-28 00:17:00,
2013-03-27 19:32:00,34.8,22.0,30.33,WNW,283,0.0,0.0,59,0.00,,,0.00,weatherlink.com 1.10,2013-03-28 00:32:00,
2013-03-27 19:47:00,33.4,22.0,30.33,WNW,283,0.0,0.0,62,0.00,,,0.00,weatherlink.com 1.10,2013-03-28 00:47:00,
2013-03-27 20:02:00,31.6,22.0,30.33,WNW,283,0.0,0.0,67,0.00,,,0.00,weatherlink.com 1.10,2013-03-28 01:02:00,
2013-03-27 20:17:00,30.3,22.0,30.33,WNW,283,0.0,0.0,70,0.00,,,0.00,weatherlink.com 1.10,2013-03-28 01:17:00,
2013-03-27 20:32:00,29.6,22.0,30.34,WNW,283,0.0,0.0,73,0.00,,,0.00,weatherlink.com 1.10,2013-03-28 01:32:00,
2013-03-27 20:48:00,29.1,21.0,30.34,WNW,283,0.0,1.0,73,0.00,,,0.00,weatherlink.com 1.10,2013-03-28 01:48:00,
2013-03-27 21:03:00,28.2,21.0,30.34,WNW,283,0.0,0.0,74,0.00,,,0.00,weatherlink.com 1.10,2013-03-28 02:03:00,
2013-03-27 21:18:00,27.6,21.0,30.35,WNW,283,0.0,0.0,76,0.00,,,0.00,weatherlink.com 1.10,2013-03-28 02:18:00,
2013-03-27 21:33:00,27.6,21.0,30.35,WNW,283,0.0,0.0,75,0.00,,,0.00,weatherlink.com 1.10,2013-03-28 02:33:00,
2013-03-27 21:48:00,26.9,21.0,30.35,WNW,283,0.0,0.0,77,0.00,,,0.00,weatherlink.com 1.10,2013-03-28 02:48:00,
2013-03-27 22:03:00,26.6,21.0,30.35,SW,230,1.0,2.0,78,0.00,,,0.00,weatherlink.com 1.10,2013-03-28 03:03:00,
2013-03-27 22:18:00,26.2,20.0,30.35,SW,230,0.0,0.0,78,0.00,,,0.00,weatherlink.com 1.10,2013-03-28 03:18:00,
2013-03-27 22:33:00,26.0,21.0,30.35,SW,230,1.0,2.0,80,0.00,,,0.00,weatherlink.com 1.10,2013-03-28 03:33:00,
2013-03-27 22:48:00,26.0,21.0,30.36,SW,230,0.0,2.0,81,0.00,,,0.00,weatherlink.com 1.10,2013-03-28 03:48:00,
2013-03-27 23:03:00,26.2,21.0,30.35,SW,230,1.0,1.0,80,0.00,,,0.00,weatherlink.com 1.10,2013-03-28 04:03:00,
2013-03-27 23:18:00,26.2,21.0,30.35,SW,230,2.0,2.0,80,0.00,,,0.00,weatherlink.com 1.10,2013-03-28 04:18:00,
2013-03-27 23:33:00,26.7,21.0,30.35,SW,217,1.0,3.0,79,0.00,,,0.00,weatherlink.com 1.10,2013-03-28 04:33:00,
2013-03-27 23:48:00,27.3,21.0,30.35,SW,217,1.0,4.0,77,0.00,,,0.00,weatherlink.com 1.10,2013-03-28 04:48:00,